{"data":{"norad_id":47261,"intl_designator":"2020-100D","name":"ONEWEB-0111","alt_names":[],"object_type":"PAYLOAD","status":"ACTIVE","operator":null,"country":"UK","launch_date":"2020-12-18","launch_site_code":"VOSTO","launch_vehicle":null,"mission":null,"orbit_class":"UNKNOWN","rcs_meters":null,"size_class":null,"mass_kg":null,"dimensions":null,"purposes":["comms"],"wikipedia_slug":null,"has_3d_model":false,"image_url":null,"decayed_at":null,"tle_current":{"epoch":"2026-05-25T02:24:15.066432Z","epoch_age_seconds":62864,"freshness":"FRESH","line1":"1 47261U 20100D   26145.10017438  .00000261  00000+0  69113-3 0  9996","line2":"2 47261  87.8961 355.2524 0001849  83.1140 277.0198 13.12443607261538","mean_motion":13.12443607,"eccentricity":0.0001849,"inclination_deg":87.8961,"raan_deg":355.2524,"arg_perigee_deg":83.114,"mean_anomaly_deg":277.0198,"bstar":0.00069113,"rev_number":26153,"period_min":109.71899991129,"perigee_km":1212.3172157089,"apogee_km":1215.1246847789,"semimajor_km":7591.8579502439,"source":"CELESTRAK","updated_at":"2026-05-25T13:38:22.378676Z"}}}